This demonstration page uses our WeatherBlox Daily Observations layout. Learn more.

Hourly Observations for May 25, 2015

Temp ( °F °C ) Dew Point ( °F °C ) Humidity (%) Winds ( mph kmh ) Pressure ( in mb ) Visibility ( mi km ) Precip ( " mm )
12:15 am 00:15 Cloudy with Nearby Thunderstorms 59 15 57 14 94 94 SSW 5 7 29.74 1007 10 16.09344 0 0
12:35 am 00:35 Cloudy 57 14 52 11 82 82 WNW 7 11 29.74 1007 10 16.09344 0 0
12:55 am 00:55 Cloudy 57 14 52 11 82 82 WNW 9 15 29.74 1007 10 16.09344 0 0
1:15 am 01:15 Cloudy 55 13 54 12 94 94 Calm 29.77 1008 10 16.09344 0 0
1:35 am 01:35 Cloudy with Nearby Thunderstorms 55 13 54 12 94 94 WSW 13 20 29.8 1009 10 16.09344 0.01 0.254
1:55 am 01:55 Cloudy 55 13 52 11 88 88 WSW 9 15 29.77 1008 10 16.09344 0.03 0.762
2:15 am 02:15 Partly Cloudy 54 12 52 11 94 94 W 7 11 29.77 1008 10 16.09344 0 0
2:35 am 02:35 Partly Cloudy 54 12 52 11 94 94 NW 3 6 29.74 1007 10 16.09344 0 0
2:55 am 02:55 Partly Cloudy 54 12 52 11 94 94 NNW 5 7 29.74 1007 10 16.09344 0 0
3:15 am 03:15 Partly Cloudy 54 12 52 11 94 94 NNW 6 9 29.71 1006 10 16.09344 0 0
3:35 am 03:35 Partly Cloudy 54 12 52 11 94 94 S 6 9 29.77 1008 10 16.09344 0 0
3:55 am 03:55 Clear 54 12 52 11 94 94 W 5 7 29.74 1007 10 16.09344 0 0
4:15 am 04:15 Clear 54 12 52 11 94 94 Calm 29.77 1008 10 16.09344 0 0
4:35 am 04:35 Clear 52 11 50 10 94 94 S 3 6 29.77 1008 10 16.09344 0 0
4:55 am 04:55 Clear 52 11 50 10 94 94 SW 5 7 29.77 1008 10 16.09344 0 0
5:15 am 05:15 Clear 52 11 52 11 100 100 SW 7 11 29.77 1008 10 16.09344 0 0
5:35 am 05:35 Clear 54 12 50 10 88 88 SW 7 11 29.77 1008 10 16.09344 0 0
5:55 am 05:55 Clear 54 12 50 10 88 88 W 9 15 29.77 1008 10 16.09344 0 0
6:15 am 06:15 Sunny 54 12 50 10 88 88 WSW 9 15 29.77 1008 10 16.09344 0 0
6:35 am 06:35 Sunny 54 12 50 10 88 88 WSW 7 11 29.77 1008 10 16.09344 0 0
6:55 am 06:55 Sunny 54 12 50 10 88 88 Calm 29.77 1008 10 16.09344 0 0
7:15 am 07:15 Sunny 52 11 50 10 94 94 SSW 3 6 29.77 1008 10 16.09344 0 0
7:35 am 07:35 Sunny 54 12 50 10 88 88 Calm 29.77 1008 10 16.09344 0 0
7:55 am 07:55 Sunny 55 13 52 11 88 88 Calm 29.77 1008 10 16.09344 0 0
8:15 am 08:15 Sunny 57 14 54 12 88 88 SSW 3 6 29.74 1007 10 16.09344 0 0
8:35 am 08:35 Sunny 59 15 54 12 82 82 Calm 29.74 1007 10 16.09344 0 0
8:55 am 08:55 Sunny 61 16 54 12 77 77 WSW 3 6 29.74 1007 10 16.09344 0 0
9:15 am 09:15 Sunny 61 16 54 12 77 77 WSW 3 6 29.74 1007 10 16.09344 0 0
9:35 am 09:35 Sunny 63 17 54 12 73 73 SSW 5 7 29.74 1007 10 16.09344 0 0
9:55 am 09:55 Sunny 63 17 54 12 73 73 SSW 3 6 29.74 1007 10 16.09344 0 0
10:15 am 10:15 Sunny 64 18 54 12 68 68 WSW 6 9 29.71 1006 10 16.09344 0 0
10:35 am 10:35 Partly Cloudy 64 18 55 13 73 73 SW 8 13 29.71 1006 10 16.09344 0 0
10:55 am 10:55 Partly Cloudy 64 18 52 11 64 64 SSW 9 15 29.71 1006 10 16.09344 0 0
11:15 am 11:15 Partly Cloudy 66 19 52 11 60 60 SSW 5 7 29.71 1006 10 16.09344 0 0
11:35 am 11:35 Partly Cloudy 64 18 52 11 64 64 SW 10 17 29.71 1006 10 16.09344 0 0
11:55 am 11:55 Partly Cloudy 66 19 54 12 64 64 SSW 9 15 29.71 1006 10 16.09344 0 0
12:15 pm 12:15 Mostly Cloudy 66 19 54 12 64 64 SSW 7 11 29.71 1006 10 16.09344 0 0
12:35 pm 12:35 Mostly Cloudy 66 19 54 12 64 64 S 9 15 29.71 1006 10 16.09344 0 0
12:55 pm 12:55 Mostly Cloudy 68 20 54 12 60 60 SSE 13 20 29.71 1006 10 16.09344 0 0
1:15 pm 13:15 Mostly Cloudy 68 20 54 12 60 60 S 14 22 29.74 1007 10 16.09344 0 0
1:35 pm 13:35 Mostly Cloudy 70 21 54 12 57 57 SSW 12 19 29.68 1005 10 16.09344 0 0
1:55 pm 13:55 Partly Cloudy 70 21 54 12 57 57 SSW 13 20 29.68 1005 10 16.09344 0 0
2:15 pm 14:15 Mostly Cloudy 70 21 54 12 57 57 SSW 13 20 29.68 1005 10 16.09344 0 0
2:35 pm 14:35 Mostly Cloudy 70 21 54 12 57 57 SW 8 13 29.68 1005 10 16.09344 0 0
2:55 pm 14:55 Partly Cloudy 72 22 54 12 53 53 WSW 13 20 29.68 1005 10 16.09344 0 0
3:15 pm 15:15 Partly Cloudy 72 22 54 12 53 53 WSW 10 17 29.68 1005 10 16.09344 0 0
3:35 pm 15:35 Partly Cloudy 73 23 54 12 50 50 WSW 9 15 29.68 1005 10 16.09344 0 0
3:55 pm 15:55 Partly Cloudy 73 23 52 11 47 47 WSW 9 15 29.68 1005 10 16.09344 0 0
4:15 pm 16:15 Partly Cloudy 73 23 54 12 50 50 WSW 10 17 29.68 1005 10 16.09344 0 0
4:35 pm 16:35 Partly Cloudy 75 24 50 10 41 41 WSW 10 17 29.68 1005 10 16.09344 0 0
4:55 pm 16:55 Sunny 75 24 50 10 41 41 WSW 15 24 29.68 1005 10 16.09344 0 0
5:15 pm 17:15 Sunny 75 24 50 10 41 41 SW 8 13 29.65 1004 10 16.09344 0 0
5:35 pm 17:35 Sunny 75 24 50 10 41 41 W 16 26 29.65 1004 10 16.09344 0 0
5:55 pm 17:55 Partly Cloudy 73 23 48 9 41 41 W 10 17 29.65 1004 10 16.09344 0 0
6:15 pm 18:15 Partly Cloudy 75 24 48 9 39 39 W 15 24 29.65 1004 10 16.09344 0 0
6:35 pm 18:35 Partly Cloudy 75 24 46 8 36 36 W 16 26 29.68 1005 10 16.09344 0 0
6:55 pm 18:55 Sunny 75 24 46 8 36 36 WSW 9 15 29.68 1005 10 16.09344 0 0
7:15 pm 19:15 Sunny 73 23 45 7 36 36 W 12 19 29.68 1005 10 16.09344 0 0
7:35 pm 19:35 Sunny 72 22 46 8 41 41 WSW 10 17 29.68 1005 10 16.09344 0 0
7:55 pm 19:55 Partly Cloudy 72 22 48 9 44 44 W 8 13 29.68 1005 10 16.09344 0 0
8:15 pm 20:15 Partly Cloudy 72 22 48 9 44 44 W 9 15 29.68 1005 10 16.09344 0 0
8:35 pm 20:35 Mostly Cloudy 70 21 48 9 46 46 W 9 15 29.68 1005 10 16.09344 0 0
8:55 pm 20:55 Partly Cloudy 68 20 50 10 53 53 W 9 15 29.71 1006 10 16.09344 0 0
9:15 pm 21:15 Partly Cloudy 66 19 50 10 56 56 W 9 15 29.71 1006 10 16.09344 0 0
9:35 pm 21:35 Clear 64 18 50 10 60 60 W 15 24 29.71 1006 10 16.09344 0 0
9:55 pm 21:55 Clear 63 17 50 10 64 64 W 12 19 29.74 1007 10 16.09344 0 0
10:15 pm 22:15 Clear 63 17 50 10 64 64 W 13 20 29.74 1007 10 16.09344 0 0
10:35 pm 22:35 Clear 63 17 48 9 59 59 W 9 15 29.74 1007 10 16.09344 0 0
10:55 pm 22:55 Clear 61 16 50 10 68 68 W 8 13 29.77 1008 10 16.09344 0 0
11:15 pm 23:15 Clear 61 16 50 10 68 68 W 8 13 29.77 1008 10 16.09344 0 0
11:35 pm 23:35 Clear 59 15 50 10 72 72 W 7 11 29.77 1008 10 16.09344 0 0
11:55 pm 23:55 Clear 59 15 50 10 72 72 W 10 17 29.74 1007 10 16.09344 0 0

Powered by AerisWeather